Weather History for EHGR - October, 2012

Change the Weather History Date:

Monday, October 1, 2012

  Actual Average Record
Temperature  
Mean Temperature 55 °F -  
Max Temperature 64 °F 57 °F 78 °F (2011)
Min Temperature 46 °F 44 °F 39 °F (2002)
Degree Days  
Heating Degree Days 10    
Growing Degree Days 5 (Base 50)    
Moisture  
Dew Point 49 °F    
Average Humidity 79    
Maximum Humidity 100    
Minimum Humidity 56    
Precipitation  
Precipitation 0.00 in - - ()
Sea Level Pressure  
Sea Level Pressure 29.98 in    
Wind  
Wind Speed 8 mph ()    
Max Wind Speed 14 mph    
Max Gust Speed -    
Visibility 6.2 miles    
Events Rain    
Averages and records for this station are not official NWS values.
T = Trace of Precipitation, MM = Missing Value Source: Averaged Metar Reports

Daily Weather History Graph

Daily Weather History Graph

Search for Another Location

Airport or City:

Trip Planner

Search our weather history database for the weather conditions in past years. The results will help you decide how hot, cold, wet, or windy it might be!

Date:

Astronomy

Oct. 01, 2012 Rise Set
Actual Time 7:41 AM CEST 7:17 PM CEST
Civil Twilight 7:08 AM CEST 7:50 PM CEST
Nautical Twilight 6:29 AM CEST 8:29 PM CEST
Astronomical Twilight 5:49 AM CEST 9:08 PM CEST
Moon 7:27 PM CEST (10/1) 9:10 AM CEST (10/1)
Length of Visible Light 12h 42m
Length of Day
11h 35m
Full, 98% of the Moon is Illuminated
Oct 1
Full
Oct 8
Last Quarter
Oct 15
New
Oct 22
First Quarter
Oct 29
Full

Hourly Weather History & Observations

Time (CEST) Temp. Windchill Dew Point Humidity Pressure Visibility Wind Dir Wind Speed Gust Speed Precip Events Conditions
12:25 AM 46.4 °F 43.5 °F 42.8 °F 87% 30.06 in 6.2 mi South 5.8 mph - N/A   Partly Cloudy
12:55 AM 46.4 °F 42.9 °F 44.6 °F 93% 30.06 in 6.2 mi South 6.9 mph - N/A   Unknown
1:25 AM 46.4 °F 42.4 °F 44.6 °F 93% 30.06 in 6.2 mi SSW 8.1 mph - N/A   Unknown
1:55 AM 46.4 °F 42.4 °F 44.6 °F 93% 30.04 in 6.2 mi South 8.1 mph - N/A   Unknown
2:25 AM 48.2 °F - 46.4 °F 93% 30.04 in 6.2 mi South 9.2 mph - N/A   Scattered Clouds
2:55 AM 48.2 °F - 46.4 °F 93% 30.04 in 6.2 mi SSW 9.2 mph - N/A   Unknown
3:25 AM 48.2 °F - 46.4 °F 93% 30.04 in 6.2 mi SSW 8.1 mph - N/A   Unknown
3:55 AM 48.2 °F - 46.4 °F 93% 30.04 in 6.2 mi South 9.2 mph - N/A   Unknown
4:02 AM 48.2 °F - 46.4 °F 93% 30.04 in 6.2 mi SSW 8.1 mph - N/A   Scattered Clouds
4:25 AM 48.2 °F - 46.4 °F 93% 30.04 in 6.2 mi SSW 8.1 mph - N/A   Overcast
4:55 AM 48.2 °F - 46.4 °F 93% 30.01 in 6.2 mi SSW 8.1 mph - N/A   Scattered Clouds
5:14 AM 48.2 °F - 46.4 °F 93% 30.01 in 6.2 mi SSW 8.1 mph - N/A   Partly Cloudy
5:25 AM 46.4 °F 43.5 °F 44.6 °F 93% 30.01 in 6.2 mi SSW 5.8 mph - N/A   Mostly Cloudy
5:55 AM 46.4 °F 42.9 °F 44.6 °F 93% 30.01 in 6.2 mi South 6.9 mph - N/A   Mostly Cloudy
6:25 AM 46.4 °F 44.3 °F 46.4 °F 100% 30.01 in 6.2 mi SSW 4.6 mph - N/A   Mostly Cloudy
6:55 AM 46.4 °F 43.5 °F 46.4 °F 100% 30.01 in 6.2 mi SSW 5.8 mph - N/A   Unknown
7:25 AM 46.4 °F 43.5 °F 44.6 °F 93% 30.01 in 6.2 mi South 5.8 mph - N/A   Unknown
7:55 AM 46.4 °F 42.4 °F 44.6 °F 93% 30.01 in 6.2 mi South 8.1 mph - N/A   Unknown
8:25 AM 46.4 °F 41.9 °F 46.4 °F 100% 30.01 in 6.2 mi South 9.2 mph - N/A   Partly Cloudy
8:41 AM 48.2 °F - 46.4 °F 93% 30.01 in 6.2 mi South 11.5 mph - N/A   Overcast
8:55 AM 48.2 °F - 46.4 °F 93% 30.01 in 6.2 mi South 11.5 mph - N/A   Overcast
9:25 AM 50.0 °F - 46.4 °F 87% 30.01 in 6.2 mi South 11.5 mph - N/A   Unknown
9:55 AM 51.8 °F - 46.4 °F 82% 30.01 in 6.2 mi South 10.4 mph - N/A   Mostly Cloudy
10:25 AM 55.4 °F - 48.2 °F 77% 30.01 in 6.2 mi SSW 9.2 mph - N/A   Mostly Cloudy
10:55 AM 57.2 °F - 48.2 °F 72% 30.01 in 6.2 mi SSW 13.8 mph - N/A   Unknown
11:25 AM 59.0 °F - 50.0 °F 72% 29.98 in 6.2 mi SSW 11.5 mph - N/A   Unknown
11:55 AM 60.8 °F - 50.0 °F 68% 29.98 in 6.2 mi SSW 12.7 mph - N/A   Unknown
12:25 PM 60.8 °F - 50.0 °F 68% 29.98 in 6.2 mi SSW 12.7 mph - N/A   Mostly Cloudy
12:55 PM 62.6 °F - 50.0 °F 63% 29.98 in 6.2 mi SW 11.5 mph - N/A   Mostly Cloudy
1:25 PM 62.6 °F - 48.2 °F 59% 29.95 in 6.2 mi SW 13.8 mph - N/A   Overcast
1:55 PM 64.4 °F - 48.2 °F 56% 29.95 in 6.2 mi SSW 12.7 mph - N/A   Partly Cloudy
2:25 PM 64.4 °F - 48.2 °F 56% 29.95 in 6.2 mi SSW 13.8 mph - N/A   Partly Cloudy
2:55 PM 64.4 °F - 48.2 °F 56% 29.95 in 6.2 mi SSW 11.5 mph - N/A   Overcast
3:25 PM 64.4 °F - 50.0 °F 59% 29.95 in 6.2 mi SSW 12.7 mph - N/A   Overcast
3:55 PM 64.4 °F - 50.0 °F 59% 29.95 in 6.2 mi SSW 11.5 mph - N/A   Overcast
4:25 PM 64.4 °F - 48.2 °F 56% 29.95 in 6.2 mi SSW 12.7 mph - N/A   Overcast
4:32 PM 64.4 °F - 48.2 °F 56% 29.95 in 6.2 mi SSW 12.7 mph - N/A   Overcast
4:55 PM 64.4 °F - 50.0 °F 59% 29.95 in 6.2 mi SSW 11.5 mph - N/A   Overcast
5:25 PM 62.6 °F - 50.0 °F 63% 29.92 in 6.2 mi SSW 8.1 mph - N/A   Overcast
5:55 PM 62.6 °F - 50.0 °F 63% 29.92 in 6.2 mi SSW 9.2 mph - N/A   Overcast
6:25 PM 62.6 °F - 48.2 °F 59% 29.92 in 6.2 mi SSW 11.5 mph - N/A   Overcast
6:33 PM 62.6 °F - 48.2 °F 59% 29.92 in 6.2 mi SSW 10.4 mph - N/A   Overcast
6:55 PM 60.8 °F - 48.2 °F 63% 29.92 in 6.2 mi SSW 9.2 mph - N/A   Mostly Cloudy
7:20 PM 60.8 °F - 50.0 °F 68% 29.92 in 6.2 mi SSW 10.4 mph - N/A   Mostly Cloudy
7:25 PM 60.8 °F - 50.0 °F 68% 29.92 in 6.2 mi SSW 10.4 mph - N/A   Overcast
7:55 PM 60.8 °F - 51.8 °F 72% 29.92 in 6.2 mi SSW 12.7 mph - N/A Rain Drizzle
8:25 PM 60.8 °F - 51.8 °F 72% 29.95 in 6.2 mi SSW 9.2 mph - N/A   Overcast
8:42 PM 60.8 °F - 51.8 °F 72% 29.95 in 6.2 mi SSW 9.2 mph - N/A Rain Light Rain
8:55 PM 59.0 °F - 51.8 °F 77% 29.95 in 6.2 mi SSW 9.2 mph - N/A   Overcast
9:11 PM 60.8 °F - 51.8 °F 72% 29.95 in 6.2 mi SSW 9.2 mph - N/A   Overcast
9:25 PM 60.8 °F - 51.8 °F 72% 29.95 in 6.2 mi SSW 10.4 mph - N/A   Overcast
9:32 PM 60.8 °F - 51.8 °F 72% 29.95 in 6.2 mi SSW 12.7 mph - N/A Rain Drizzle
9:55 PM 57.2 °F - 53.6 °F 88% 29.95 in 5.6 mi SW 9.2 mph - N/A Rain Light Rain
10:00 PM 57.2 °F - 53.6 °F 88% 29.95 in 6.2 mi SW 9.2 mph - N/A Rain Light Rain Showers
10:11 PM 57.2 °F - 53.6 °F 88% 29.95 in 4.3 mi SSW 6.9 mph - N/A   Mostly Cloudy
10:15 PM 57.2 °F - 53.6 °F 88% 29.95 in 6.2 mi SSW 8.1 mph - N/A Rain Light Rain
10:25 PM 57.2 °F - 53.6 °F 88% 29.95 in 6.2 mi SSW 9.2 mph - N/A   Mostly Cloudy
10:55 PM 57.2 °F - 53.6 °F 88% 29.95 in 6.2 mi South 8.1 mph - N/A   Overcast
11:25 PM 57.2 °F - 53.6 °F 88% 29.95 in 6.2 mi South 9.2 mph - N/A   Overcast
11:55 PM 57.2 °F - 51.8 °F 82% 29.95 in 6.2 mi SSW 9.2 mph - N/A   Overcast